Nova Scotia Power in-province load,,,
,,,
HOUR,Date/time,Load [MW],
,,,
1,2021-01-01 01:00,1369.58,
2,2021-01-01 02:00,1346.53,
3,2021-01-01 03:00,1313.91,
4,2021-01-01 04:00,1297.92,
5,2021-01-01 05:00,1303.70,
6,2021-01-01 06:00,1320.31,
7,2021-01-01 07:00,1321.85,
8,2021-01-01 08:00,1363.14,
9,2021-01-01 09:00,1407.65,
10,2021-01-01 10:00,1439.43,
11,2021-01-01 11:00,1457.03,
12,2021-01-01 12:00,1457.94,
13,2021-01-01 13:00,1444.32,
14,2021-01-01 14:00,1403.83,
15,2021-01-01 15:00,1373.52,
16,2021-01-01 16:00,1391.24,
17,2021-01-01 17:00,1493.86,
18,2021-01-01 18:00,1602.48,
19,2021-01-01 19:00,1583.62,
20,2021-01-01 20:00,1559.48,
21,2021-01-01 21:00,1528.02,
22,2021-01-01 22:00,1480.59,
23,2021-01-01 23:00,1422.67,
24,2021-01-01 00:00,1381.07,
25,2021-01-02 01:00,1334.10,
26,2021-01-02 02:00,1303.35,
27,2021-01-02 03:00,1287.75,
28,2021-01-02 04:00,1281.35,
29,2021-01-02 05:00,1284.56,
30,2021-01-02 06:00,1303.05,
31,2021-01-02 07:00,1355.18,
32,2021-01-02 08:00,1416.29,
33,2021-01-02 09:00,1494.82,
34,2021-01-02 10:00,1562.66,
35,2021-01-02 11:00,1604.29,
36,2021-01-02 12:00,1634.55,
37,2021-01-02 13:00,1643.45,
38,2021-01-02 14:00,1687.97,
39,2021-01-02 15:00,1714.41,
40,2021-01-02 16:00,1723.30,
41,2021-01-02 17:00,1780.31,
42,2021-01-02 18:00,1825.07,
43,2021-01-02 19:00,1758.30,
44,2021-01-02 20:00,1708.88,
45,2021-01-02 21:00,1662.70,
46,2021-01-02 22:00,1591.54,
47,2021-01-02 23:00,1509.63,
48,2021-01-02 00:00,1435.92,
49,2021-01-03 01:00,1372.86,
50,2021-01-03 02:00,1338.32,
51,2021-01-03 03:00,1317.90,
52,2021-01-03 04:00,1299.61,
53,2021-01-03 05:00,1295.87,
54,2021-01-03 06:00,1319.64,
55,2021-01-03 07:00,1355.30,
56,2021-01-03 08:00,1415.92,
57,2021-01-03 09:00,1484.15,
58,2021-01-03 10:00,1501.63,
59,2021-01-03 11:00,1547.03,
60,2021-01-03 12:00,1570.11,
61,2021-01-03 13:00,1582.96,
62,2021-01-03 14:00,1570.03,
63,2021-01-03 15:00,1509.49,
64,2021-01-03 16:00,1515.28,
65,2021-01-03 17:00,1570.07,
66,2021-01-03 18:00,1670.29,
67,2021-01-03 19:00,1629.97,
68,2021-01-03 20:00,1581.50,
69,2021-01-03 21:00,1530.53,
70,2021-01-03 22:00,1493.39,
71,2021-01-03 23:00,1440.46,
72,2021-01-03 00:00,1365.34,
73,2021-01-04 01:00,1305.46,
74,2021-01-04 02:00,1274.53,
75,2021-01-04 03:00,1264.30,
76,2021-01-04 04:00,1262.71,
77,2021-01-04 05:00,1276.57,
78,2021-01-04 06:00,1330.12,
79,2021-01-04 07:00,1437.72,
80,2021-01-04 08:00,1531.41,
81,2021-01-04 09:00,1546.26,
82,2021-01-04 10:00,1571.81,
83,2021-01-04 11:00,1577.39,
84,2021-01-04 12:00,1579.57,
85,2021-01-04 13:00,1575.22,
86,2021-01-04 14:00,1544.39,
87,2021-01-04 15:00,1513.81,
88,2021-01-04 16:00,1524.51,
89,2021-01-04 17:00,1584.46,
90,2021-01-04 18:00,1653.14,
91,2021-01-04 19:00,1608.01,
92,2021-01-04 20:00,1560.65,
93,2021-01-04 21:00,1526.58,
94,2021-01-04 22:00,1496.38,
95,2021-01-04 23:00,1477.62,
96,2021-01-04 00:00,1454.65,
97,2021-01-05 01:00,1418.55,
98,2021-01-05 02:00,1377.47,
99,2021-01-05 03:00,1341.40,
100,2021-01-05 04:00,1326.88,
101,2021-01-05 05:00,1333.43,
102,2021-01-05 06:00,1384.28,
103,2021-01-05 07:00,1486.97,
104,2021-01-05 08:00,1576.10,
105,2021-01-05 09:00,1623.20,
106,2021-01-05 10:00,1647.65,
107,2021-01-05 11:00,1656.94,
108,2021-01-05 12:00,1656.25,
109,2021-01-05 13:00,1677.37,
110,2021-01-05 14:00,1652.92,
111,2021-01-05 15:00,1580.14,
112,2021-01-05 16:00,1595.09,
113,2021-01-05 17:00,1654.99,
114,2021-01-05 18:00,1728.16,
115,2021-01-05 19:00,1685.19,
116,2021-01-05 20:00,1642.34,
117,2021-01-05 21:00,1625.06,
118,2021-01-05 22:00,1593.18,
119,2021-01-05 23:00,1504.49,
120,2021-01-05 00:00,1470.25,
121,2021-01-06 01:00,1446.42,
122,2021-01-06 02:00,1405.47,
123,2021-01-06 03:00,1372.62,
124,2021-01-06 04:00,1356.41,
125,2021-01-06 05:00,1358.51,
126,2021-01-06 06:00,1400.36,
127,2021-01-06 07:00,1501.36,
128,2021-01-06 08:00,1530.28,
129,2021-01-06 09:00,1582.48,
130,2021-01-06 10:00,1600.43,
131,2021-01-06 11:00,1606.96,
132,2021-01-06 12:00,1611.13,
133,2021-01-06 13:00,1621.97,
134,2021-01-06 14:00,1603.12,
135,2021-01-06 15:00,1576.61,
136,2021-01-06 16:00,1591.19,
137,2021-01-06 17:00,1611.60,
138,2021-01-06 18:00,1688.01,
139,2021-01-06 19:00,1644.52,
140,2021-01-06 20:00,1597.23,
141,2021-01-06 21:00,1581.54,
142,2021-01-06 22:00,1513.02,
143,2021-01-06 23:00,1477.33,
144,2021-01-06 00:00,1450.30,
145,2021-01-07 01:00,1417.25,
146,2021-01-07 02:00,1383.56,
147,2021-01-07 03:00,1344.80,
148,2021-01-07 04:00,1331.76,
149,2021-01-07 05:00,1336.01,
150,2021-01-07 06:00,1386.93,
151,2021-01-07 07:00,1499.05,
152,2021-01-07 08:00,1604.69,
153,2021-01-07 09:00,1586.73,
154,2021-01-07 10:00,1612.20,
155,2021-01-07 11:00,1619.98,
156,2021-01-07 12:00,1632.38,
157,2021-01-07 13:00,1653.11,
158,2021-01-07 14:00,1635.37,
159,2021-01-07 15:00,1632.13,
160,2021-01-07 16:00,1574.06,
161,2021-01-07 17:00,1610.42,
162,2021-01-07 18:00,1683.23,
163,2021-01-07 19:00,1633.57,
164,2021-01-07 20:00,1587.28,
165,2021-01-07 21:00,1597.17,
166,2021-01-07 22:00,1539.22,
167,2021-01-07 23:00,1454.21,
168,2021-01-07 00:00,1425.55,
169,2021-01-08 01:00,1462.03,
170,2021-01-08 02:00,1432.87,
171,2021-01-08 03:00,1396.17,
172,2021-01-08 04:00,1383.94,
173,2021-01-08 05:00,1393.92,
174,2021-01-08 06:00,1383.88,
175,2021-01-08 07:00,1494.20,
176,2021-01-08 08:00,1569.78,
177,2021-01-08 09:00,1611.84,
178,2021-01-08 10:00,1637.27,
179,2021-01-08 11:00,1632.19,
180,2021-01-08 12:00,1633.78,
181,2021-01-08 13:00,1635.98,
182,2021-01-08 14:00,1621.74,
183,2021-01-08 15:00,1613.80,
184,2021-01-08 16:00,1619.59,
185,2021-01-08 17:00,1653.90,
186,2021-01-08 18:00,1713.95,
187,2021-01-08 19:00,1660.84,
188,2021-01-08 20:00,1617.37,
189,2021-01-08 21:00,1560.75,
190,2021-01-08 22:00,1490.47,
191,2021-01-08 23:00,1413.75,
192,2021-01-08 00:00,1391.99,
193,2021-01-09 01:00,1362.36,
194,2021-01-09 02:00,1326.40,
195,2021-01-09 03:00,1298.41,
196,2021-01-09 04:00,1280.97,
197,2021-01-09 05:00,1280.44,
198,2021-01-09 06:00,1307.83,
199,2021-01-09 07:00,1357.59,
200,2021-01-09 08:00,1423.37,
201,2021-01-09 09:00,1491.13,
202,2021-01-09 10:00,1532.93,
203,2021-01-09 11:00,1529.51,
204,2021-01-09 12:00,1511.34,
205,2021-01-09 13:00,1478.78,
206,2021-01-09 14:00,1427.55,
207,2021-01-09 15:00,1402.17,
208,2021-01-09 16:00,1413.76,
209,2021-01-09 17:00,1501.77,
210,2021-01-09 18:00,1588.46,
211,2021-01-09 19:00,1538.41,
212,2021-01-09 20:00,1503.08,
213,2021-01-09 21:00,1458.28,
214,2021-01-09 22:00,1400.28,
215,2021-01-09 23:00,1326.56,
216,2021-01-09 00:00,1268.57,
217,2021-01-10 01:00,1219.47,
218,2021-01-10 02:00,1184.93,
219,2021-01-10 03:00,1167.90,
220,2021-01-10 04:00,1168.70,
221,2021-01-10 05:00,1181.88,
222,2021-01-10 06:00,1212.90,
223,2021-01-10 07:00,1261.03,
224,2021-01-10 08:00,1324.70,
225,2021-01-10 09:00,1399.45,
226,2021-01-10 10:00,1484.55,
227,2021-01-10 11:00,1526.55,
228,2021-01-10 12:00,1573.34,
229,2021-01-10 13:00,1582.74,
230,2021-01-10 14:00,1563.44,
231,2021-01-10 15:00,1554.89,
232,2021-01-10 16:00,1581.84,
233,2021-01-10 17:00,1665.02,
234,2021-01-10 18:00,1723.41,
235,2021-01-10 19:00,1668.33,
236,2021-01-10 20:00,1645.13,
237,2021-01-10 21:00,1598.73,
238,2021-01-10 22:00,1528.20,
239,2021-01-10 23:00,1439.86,
240,2021-01-10 00:00,1372.48,
241,2021-01-11 01:00,1327.14,
242,2021-01-11 02:00,1304.39,
243,2021-01-11 03:00,1305.51,
244,2021-01-11 04:00,1307.72,
245,2021-01-11 05:00,1332.97,
246,2021-01-11 06:00,1403.82,
247,2021-01-11 07:00,1543.95,
248,2021-01-11 08:00,1658.27,
249,2021-01-11 09:00,1685.44,
250,2021-01-11 10:00,1636.29,
251,2021-01-11 11:00,1571.53,
252,2021-01-11 12:00,1529.09,
253,2021-01-11 13:00,1494.23,
254,2021-01-11 14:00,1433.86,
255,2021-01-11 15:00,1390.01,
256,2021-01-11 16:00,1405.42,
257,2021-01-11 17:00,1508.91,
258,2021-01-11 18:00,1628.85,
259,2021-01-11 19:00,1606.87,
260,2021-01-11 20:00,1568.90,
261,2021-01-11 21:00,1513.49,
262,2021-01-11 22:00,1452.09,
263,2021-01-11 23:00,1405.83,
264,2021-01-11 00:00,1388.57,
265,2021-01-12 01:00,1402.80,
266,2021-01-12 02:00,1378.28,
267,2021-01-12 03:00,1353.25,
268,2021-01-12 04:00,1350.97,
269,2021-01-12 05:00,1365.89,
270,2021-01-12 06:00,1366.77,
271,2021-01-12 07:00,1408.30,
272,2021-01-12 08:00,1500.16,
273,2021-01-12 09:00,1526.19,
274,2021-01-12 10:00,1519.32,
275,2021-01-12 11:00,1490.56,
276,2021-01-12 12:00,1465.56,
277,2021-01-12 13:00,1454.82,
278,2021-01-12 14:00,1419.06,
279,2021-01-12 15:00,1402.96,
280,2021-01-12 16:00,1436.49,
281,2021-01-12 17:00,1514.10,
282,2021-01-12 18:00,1600.49,
283,2021-01-12 19:00,1572.35,
284,2021-01-12 20:00,1539.65,
285,2021-01-12 21:00,1500.96,
286,2021-01-12 22:00,1496.29,
287,2021-01-12 23:00,1428.44,
288,2021-01-12 00:00,1398.67,
289,2021-01-13 01:00,1371.19,
290,2021-01-13 02:00,1399.59,
291,2021-01-13 03:00,1379.65,
292,2021-01-13 04:00,1371.01,
293,2021-01-13 05:00,1381.08,
294,2021-01-13 06:00,1378.51,
295,2021-01-13 07:00,1460.93,
296,2021-01-13 08:00,1560.57,
297,2021-01-13 09:00,1594.43,
298,2021-01-13 10:00,1566.76,
299,2021-01-13 11:00,1506.47,
300,2021-01-13 12:00,1462.48,
301,2021-01-13 13:00,1437.02,
302,2021-01-13 14:00,1397.90,
303,2021-01-13 15:00,1380.18,
304,2021-01-13 16:00,1404.64,
305,2021-01-13 17:00,1499.20,
306,2021-01-13 18:00,1600.72,
307,2021-01-13 19:00,1579.87,
308,2021-01-13 20:00,1548.56,
309,2021-01-13 21:00,1510.44,
310,2021-01-13 22:00,1448.92,
311,2021-01-13 23:00,1379.62,
312,2021-01-13 00:00,1388.16,
313,2021-01-14 01:00,1365.60,
314,2021-01-14 02:00,1383.42,
315,2021-01-14 03:00,1353.83,
316,2021-01-14 04:00,1335.99,
317,2021-01-14 05:00,1341.76,
318,2021-01-14 06:00,1390.84,
319,2021-01-14 07:00,1515.14,
320,2021-01-14 08:00,1621.49,
321,2021-01-14 09:00,1658.30,
322,2021-01-14 10:00,1662.69,
323,2021-01-14 11:00,1628.71,
324,2021-01-14 12:00,1596.71,
325,2021-01-14 13:00,1606.08,
326,2021-01-14 14:00,1580.33,
327,2021-01-14 15:00,1562.07,
328,2021-01-14 16:00,1570.02,
329,2021-01-14 17:00,1618.08,
330,2021-01-14 18:00,1689.11,
331,2021-01-14 19:00,1647.27,
332,2021-01-14 20:00,1604.26,
333,2021-01-14 21:00,1545.94,
334,2021-01-14 22:00,1474.57,
335,2021-01-14 23:00,1387.70,
336,2021-01-14 00:00,1352.09,
337,2021-01-15 01:00,1326.79,
338,2021-01-15 02:00,1289.27,
339,2021-01-15 03:00,1252.91,
340,2021-01-15 04:00,1238.74,
341,2021-01-15 05:00,1248.26,
342,2021-01-15 06:00,1265.97,
343,2021-01-15 07:00,1335.11,
344,2021-01-15 08:00,1447.78,
345,2021-01-15 09:00,1488.00,
346,2021-01-15 10:00,1495.64,
347,2021-01-15 11:00,1493.64,
348,2021-01-15 12:00,1472.62,
349,2021-01-15 13:00,1439.74,
350,2021-01-15 14:00,1401.54,
351,2021-01-15 15:00,1388.09,
352,2021-01-15 16:00,1413.63,
353,2021-01-15 17:00,1466.31,
354,2021-01-15 18:00,1558.75,
355,2021-01-15 19:00,1537.17,
356,2021-01-15 20:00,1502.65,
357,2021-01-15 21:00,1473.09,
358,2021-01-15 22:00,1454.00,
359,2021-01-15 23:00,1399.42,
360,2021-01-15 00:00,1387.74,
361,2021-01-16 01:00,1379.28,
362,2021-01-16 02:00,1359.04,
363,2021-01-16 03:00,1354.73,
364,2021-01-16 04:00,1355.34,
365,2021-01-16 05:00,1354.70,
366,2021-01-16 06:00,1379.41,
367,2021-01-16 07:00,1430.57,
368,2021-01-16 08:00,1502.98,
369,2021-01-16 09:00,1582.12,
370,2021-01-16 10:00,1630.83,
371,2021-01-16 11:00,1650.95,
372,2021-01-16 12:00,1635.99,
373,2021-01-16 13:00,1613.14,
374,2021-01-16 14:00,1579.19,
375,2021-01-16 15:00,1568.91,
376,2021-01-16 16:00,1573.39,
377,2021-01-16 17:00,1642.43,
378,2021-01-16 18:00,1705.03,
379,2021-01-16 19:00,1645.16,
380,2021-01-16 20:00,1589.42,
381,2021-01-16 21:00,1588.66,
382,2021-01-16 22:00,1537.81,
383,2021-01-16 23:00,1463.08,
384,2021-01-16 00:00,1396.81,
385,2021-01-17 01:00,1334.47,
386,2021-01-17 02:00,1290.51,
387,2021-01-17 03:00,1250.75,
388,2021-01-17 04:00,1238.28,
389,2021-01-17 05:00,1233.26,
390,2021-01-17 06:00,1241.50,
391,2021-01-17 07:00,1273.55,
392,2021-01-17 08:00,1330.04,
393,2021-01-17 09:00,1398.25,
394,2021-01-17 10:00,1466.40,
395,2021-01-17 11:00,1489.22,
396,2021-01-17 12:00,1520.94,
397,2021-01-17 13:00,1554.14,
398,2021-01-17 14:00,1532.49,
399,2021-01-17 15:00,1526.79,
400,2021-01-17 16:00,1552.22,
401,2021-01-17 17:00,1619.94,
402,2021-01-17 18:00,1650.37,
403,2021-01-17 19:00,1611.69,
404,2021-01-17 20:00,1571.04,
405,2021-01-17 21:00,1512.77,
406,2021-01-17 22:00,1433.31,
407,2021-01-17 23:00,1341.67,
408,2021-01-17 00:00,1263.79,
409,2021-01-18 01:00,1224.16,
410,2021-01-18 02:00,1243.24,
411,2021-01-18 03:00,1229.60,
412,2021-01-18 04:00,1224.79,
413,2021-01-18 05:00,1237.74,
414,2021-01-18 06:00,1259.52,
415,2021-01-18 07:00,1382.40,
416,2021-01-18 08:00,1508.73,
417,2021-01-18 09:00,1548.79,
418,2021-01-18 10:00,1568.75,
419,2021-01-18 11:00,1577.69,
420,2021-01-18 12:00,1512.09,
421,2021-01-18 13:00,1510.97,
422,2021-01-18 14:00,1459.67,
423,2021-01-18 15:00,1427.17,
424,2021-01-18 16:00,1435.93,
425,2021-01-18 17:00,1499.65,
426,2021-01-18 18:00,1590.33,
427,2021-01-18 19:00,1557.28,
428,2021-01-18 20:00,1517.55,
429,2021-01-18 21:00,1472.78,
430,2021-01-18 22:00,1429.46,
431,2021-01-18 23:00,1351.96,
432,2021-01-18 00:00,1290.62,
433,2021-01-19 01:00,1234.14,
434,2021-01-19 02:00,1201.86,
435,2021-01-19 03:00,1183.26,
436,2021-01-19 04:00,1184.60,
437,2021-01-19 05:00,1208.67,
438,2021-01-19 06:00,1279.59,
439,2021-01-19 07:00,1429.28,
440,2021-01-19 08:00,1561.28,
441,2021-01-19 09:00,1610.82,
442,2021-01-19 10:00,1594.06,
443,2021-01-19 11:00,1561.25,
444,2021-01-19 12:00,1540.40,
445,2021-01-19 13:00,1530.00,
446,2021-01-19 14:00,1488.08,
447,2021-01-19 15:00,1458.95,
448,2021-01-19 16:00,1478.42,
449,2021-01-19 17:00,1553.32,
450,2021-01-19 18:00,1683.77,
451,2021-01-19 19:00,1686.26,
452,2021-01-19 20:00,1660.14,
453,2021-01-19 21:00,1619.94,
454,2021-01-19 22:00,1553.57,
455,2021-01-19 23:00,1462.57,
456,2021-01-19 00:00,1438.34,
457,2021-01-20 01:00,1416.12,
458,2021-01-20 02:00,1397.65,
459,2021-01-20 03:00,1377.05,
460,2021-01-20 04:00,1379.77,
461,2021-01-20 05:00,1400.71,
462,2021-01-20 06:00,1464.31,
463,2021-01-20 07:00,1599.72,
464,2021-01-20 08:00,1715.15,
465,2021-01-20 09:00,1744.09,
466,2021-01-20 10:00,1685.09,
467,2021-01-20 11:00,1636.30,
468,2021-01-20 12:00,1585.60,
469,2021-01-20 13:00,1558.39,
470,2021-01-20 14:00,1499.12,
471,2021-01-20 15:00,1477.16,
472,2021-01-20 16:00,1485.68,
473,2021-01-20 17:00,1556.48,
474,2021-01-20 18:00,1681.31,
475,2021-01-20 19:00,1677.58,
476,2021-01-20 20:00,1651.69,
477,2021-01-20 21:00,1615.44,
478,2021-01-20 22:00,1564.75,
479,2021-01-20 23:00,1472.18,
480,2021-01-20 00:00,1450.12,
481,2021-01-21 01:00,1435.79,
482,2021-01-21 02:00,1424.71,
483,2021-01-21 03:00,1414.71,
484,2021-01-21 04:00,1413.70,
485,2021-01-21 05:00,1437.89,
486,2021-01-21 06:00,1500.79,
487,2021-01-21 07:00,1646.10,
488,2021-01-21 08:00,1764.08,
489,2021-01-21 09:00,1788.60,
490,2021-01-21 10:00,1729.58,
491,2021-01-21 11:00,1669.73,
492,2021-01-21 12:00,1622.75,
493,2021-01-21 13:00,1600.67,
494,2021-01-21 14:00,1544.98,
495,2021-01-21 15:00,1519.72,
496,2021-01-21 16:00,1552.33,
497,2021-01-21 17:00,1641.17,
498,2021-01-21 18:00,1736.95,
499,2021-01-21 19:00,1726.56,
500,2021-01-21 20:00,1696.43,
501,2021-01-21 21:00,1660.53,
502,2021-01-21 22:00,1598.24,
503,2021-01-21 23:00,1512.62,
504,2021-01-21 00:00,1488.18,
505,2021-01-22 01:00,1462.65,
506,2021-01-22 02:00,1426.30,
507,2021-01-22 03:00,1391.51,
508,2021-01-22 04:00,1373.40,
509,2021-01-22 05:00,1382.54,
510,2021-01-22 06:00,1429.72,
511,2021-01-22 07:00,1550.00,
512,2021-01-22 08:00,1661.23,
513,2021-01-22 09:00,1702.50,
514,2021-01-22 10:00,1719.84,
515,2021-01-22 11:00,1729.06,
516,2021-01-22 12:00,1746.72,
517,2021-01-22 13:00,1749.71,
518,2021-01-22 14:00,1706.08,
519,2021-01-22 15:00,1684.24,
520,2021-01-22 16:00,1689.46,
521,2021-01-22 17:00,1664.32,
522,2021-01-22 18:00,1710.10,
523,2021-01-22 19:00,1671.75,
524,2021-01-22 20:00,1616.62,
525,2021-01-22 21:00,1562.36,
526,2021-01-22 22:00,1511.96,
527,2021-01-22 23:00,1494.97,
528,2021-01-22 00:00,1536.64,
529,2021-01-23 01:00,1548.84,
530,2021-01-23 02:00,1526.54,
531,2021-01-23 03:00,1504.91,
532,2021-01-23 04:00,1503.91,
533,2021-01-23 05:00,1510.92,
534,2021-01-23 06:00,1484.47,
535,2021-01-23 07:00,1546.58,
536,2021-01-23 08:00,1595.13,
537,2021-01-23 09:00,1668.65,
538,2021-01-23 10:00,1705.79,
539,2021-01-23 11:00,1670.94,
540,2021-01-23 12:00,1649.26,
541,2021-01-23 13:00,1632.29,
542,2021-01-23 14:00,1644.28,
543,2021-01-23 15:00,1634.86,
544,2021-01-23 16:00,1645.62,
545,2021-01-23 17:00,1714.19,
546,2021-01-23 18:00,1798.76,
547,2021-01-23 19:00,1771.45,
548,2021-01-23 20:00,1726.34,
549,2021-01-23 21:00,1679.78,
550,2021-01-23 22:00,1658.98,
551,2021-01-23 23:00,1605.47,
552,2021-01-23 00:00,1558.17,
553,2021-01-24 01:00,1519.25,
554,2021-01-24 02:00,1501.17,
555,2021-01-24 03:00,1497.64,
556,2021-01-24 04:00,1501.48,
557,2021-01-24 05:00,1517.94,
558,2021-01-24 06:00,1551.67,
559,2021-01-24 07:00,1605.10,
560,2021-01-24 08:00,1673.21,
561,2021-01-24 09:00,1678.08,
562,2021-01-24 10:00,1694.10,
563,2021-01-24 11:00,1696.20,
564,2021-01-24 12:00,1721.15,
565,2021-01-24 13:00,1768.67,
566,2021-01-24 14:00,1752.26,
567,2021-01-24 15:00,1733.39,
568,2021-01-24 16:00,1745.42,
569,2021-01-24 17:00,1799.66,
570,2021-01-24 18:00,1836.16,
571,2021-01-24 19:00,1764.56,
572,2021-01-24 20:00,1745.35,
573,2021-01-24 21:00,1693.73,
574,2021-01-24 22:00,1672.82,
575,2021-01-24 23:00,1599.69,
576,2021-01-24 00:00,1509.35,
577,2021-01-25 01:00,1444.56,
578,2021-01-25 02:00,1415.88,
579,2021-01-25 03:00,1404.27,
580,2021-01-25 04:00,1408.64,
581,2021-01-25 05:00,1433.90,
582,2021-01-25 06:00,1500.46,
583,2021-01-25 07:00,1638.17,
584,2021-01-25 08:00,1685.94,
585,2021-01-25 09:00,1718.56,
586,2021-01-25 10:00,1712.74,
587,2021-01-25 11:00,1680.71,
588,2021-01-25 12:00,1658.45,
589,2021-01-25 13:00,1637.99,
590,2021-01-25 14:00,1605.67,
591,2021-01-25 15:00,1593.71,
592,2021-01-25 16:00,1612.57,
593,2021-01-25 17:00,1682.95,
594,2021-01-25 18:00,1769.04,
595,2021-01-25 19:00,1744.54,
596,2021-01-25 20:00,1697.15,
597,2021-01-25 21:00,1638.06,
598,2021-01-25 22:00,1562.87,
599,2021-01-25 23:00,1469.27,
600,2021-01-25 00:00,1438.30,
601,2021-01-26 01:00,1422.19,
602,2021-01-26 02:00,1393.75,
603,2021-01-26 03:00,1359.56,
604,2021-01-26 04:00,1344.23,
605,2021-01-26 05:00,1374.72,
606,2021-01-26 06:00,1428.86,
607,2021-01-26 07:00,1512.57,
608,2021-01-26 08:00,1611.53,
609,2021-01-26 09:00,1634.64,
610,2021-01-26 10:00,1610.75,
611,2021-01-26 11:00,1573.21,
612,2021-01-26 12:00,1545.52,
613,2021-01-26 13:00,1528.22,
614,2021-01-26 14:00,1484.74,
615,2021-01-26 15:00,1462.14,
616,2021-01-26 16:00,1483.02,
617,2021-01-26 17:00,1548.53,
618,2021-01-26 18:00,1653.91,
619,2021-01-26 19:00,1653.05,
620,2021-01-26 20:00,1576.44,
621,2021-01-26 21:00,1503.86,
622,2021-01-26 22:00,1432.22,
623,2021-01-26 23:00,1348.75,
624,2021-01-26 00:00,1337.69,
625,2021-01-27 01:00,1347.19,
626,2021-01-27 02:00,1327.88,
627,2021-01-27 03:00,1297.49,
628,2021-01-27 04:00,1285.29,
629,2021-01-27 05:00,1296.79,
630,2021-01-27 06:00,1357.39,
631,2021-01-27 07:00,1489.89,
632,2021-01-27 08:00,1542.73,
633,2021-01-27 09:00,1568.14,
634,2021-01-27 10:00,1563.66,
635,2021-01-27 11:00,1584.27,
636,2021-01-27 12:00,1580.51,
637,2021-01-27 13:00,1617.05,
638,2021-01-27 14:00,1622.67,
639,2021-01-27 15:00,1595.09,
640,2021-01-27 16:00,1595.25,
641,2021-01-27 17:00,1647.14,
642,2021-01-27 18:00,1708.03,
643,2021-01-27 19:00,1705.49,
644,2021-01-27 20:00,1662.81,
645,2021-01-27 21:00,1624.58,
646,2021-01-27 22:00,1559.80,
647,2021-01-27 23:00,1469.02,
648,2021-01-27 00:00,1440.69,
649,2021-01-28 01:00,1426.62,
650,2021-01-28 02:00,1457.51,
651,2021-01-28 03:00,1435.87,
652,2021-01-28 04:00,1433.51,
653,2021-01-28 05:00,1446.94,
654,2021-01-28 06:00,1437.76,
655,2021-01-28 07:00,1568.88,
656,2021-01-28 08:00,1617.42,
657,2021-01-28 09:00,1621.43,
658,2021-01-28 10:00,1602.23,
659,2021-01-28 11:00,1563.89,
660,2021-01-28 12:00,1544.15,
661,2021-01-28 13:00,1552.40,
662,2021-01-28 14:00,1514.16,
663,2021-01-28 15:00,1489.75,
664,2021-01-28 16:00,1509.55,
665,2021-01-28 17:00,1572.19,
666,2021-01-28 18:00,1649.68,
667,2021-01-28 19:00,1642.66,
668,2021-01-28 20:00,1616.08,
669,2021-01-28 21:00,1569.04,
670,2021-01-28 22:00,1501.77,
671,2021-01-28 23:00,1411.37,
672,2021-01-28 00:00,1410.21,
673,2021-01-29 01:00,1447.26,
674,2021-01-29 02:00,1428.94,
675,2021-01-29 03:00,1392.99,
676,2021-01-29 04:00,1379.42,
677,2021-01-29 05:00,1391.65,
678,2021-01-29 06:00,1448.44,
679,2021-01-29 07:00,1582.40,
680,2021-01-29 08:00,1629.32,
681,2021-01-29 09:00,1658.77,
682,2021-01-29 10:00,1666.50,
683,2021-01-29 11:00,1652.15,
684,2021-01-29 12:00,1664.78,
685,2021-01-29 13:00,1730.02,
686,2021-01-29 14:00,1712.10,
687,2021-01-29 15:00,1697.86,
688,2021-01-29 16:00,1711.21,
689,2021-01-29 17:00,1740.52,
690,2021-01-29 18:00,1801.33,
691,2021-01-29 19:00,1783.39,
692,2021-01-29 20:00,1736.82,
693,2021-01-29 21:00,1678.42,
694,2021-01-29 22:00,1678.19,
695,2021-01-29 23:00,1611.14,
696,2021-01-29 00:00,1599.75,
697,2021-01-30 01:00,1573.12,
698,2021-01-30 02:00,1548.78,
699,2021-01-30 03:00,1523.59,
700,2021-01-30 04:00,1512.24,
701,2021-01-30 05:00,1518.30,
702,2021-01-30 06:00,1545.62,
703,2021-01-30 07:00,1596.52,
704,2021-01-30 08:00,1626.38,
705,2021-01-30 09:00,1729.74,
706,2021-01-30 10:00,1779.73,
707,2021-01-30 11:00,1789.00,
708,2021-01-30 12:00,1772.58,
709,2021-01-30 13:00,1737.78,
710,2021-01-30 14:00,1679.09,
711,2021-01-30 15:00,1552.83,
712,2021-01-30 16:00,1541.17,
713,2021-01-30 17:00,1618.39,
714,2021-01-30 18:00,1738.33,
715,2021-01-30 19:00,1763.25,
716,2021-01-30 20:00,1787.23,
717,2021-01-30 21:00,1752.96,
718,2021-01-30 22:00,1702.39,
719,2021-01-30 23:00,1639.95,
720,2021-01-30 00:00,1584.02,
721,2021-01-31 01:00,1538.21,
722,2021-01-31 02:00,1520.86,
723,2021-01-31 03:00,1514.89,
724,2021-01-31 04:00,1519.33,
725,2021-01-31 05:00,1533.40,
726,2021-01-31 06:00,1559.54,
727,2021-01-31 07:00,1608.89,
728,2021-01-31 08:00,1673.85,
729,2021-01-31 09:00,1670.40,
730,2021-01-31 10:00,1713.86,
731,2021-01-31 11:00,1718.76,
732,2021-01-31 12:00,1686.34,
733,2021-01-31 13:00,1648.37,
734,2021-01-31 14:00,1596.64,
735,2021-01-31 15:00,1560.97,
736,2021-01-31 16:00,1557.81,
737,2021-01-31 17:00,1632.39,
738,2021-01-31 18:00,1718.18,
739,2021-01-31 19:00,1704.13,
740,2021-01-31 20:00,1669.06,
741,2021-01-31 21:00,1617.96,
742,2021-01-31 22:00,1540.52,
743,2021-01-31 23:00,1445.90,
744,2021-01-31 00:00,1408.14,
745,2021-02-01 01:00,1382.31,
746,2021-02-01 02:00,1357.45,
747,2021-02-01 03:00,1348.26,
748,2021-02-01 04:00,1359.68,
749,2021-02-01 05:00,1379.13,
750,2021-02-01 06:00,1440.19,
751,2021-02-01 07:00,1500.68,
752,2021-02-01 08:00,1617.44,
753,2021-02-01 09:00,1660.28,
754,2021-02-01 10:00,1660.37,
755,2021-02-01 11:00,1653.34,
756,2021-02-01 12:00,1636.20,
757,2021-02-01 13:00,1625.37,
758,2021-02-01 14:00,1578.24,
759,2021-02-01 15:00,1532.68,
760,2021-02-01 16:00,1525.20,
761,2021-02-01 17:00,1589.69,
762,2021-02-01 18:00,1683.90,
763,2021-02-01 19:00,1718.22,
764,2021-02-01 20:00,1713.15,
765,2021-02-01 21:00,1661.13,
766,2021-02-01 22:00,1594.07,
767,2021-02-01 23:00,1514.81,
768,2021-02-01 00:00,1538.78,
769,2021-02-02 01:00,1519.31,
770,2021-02-02 02:00,1481.44,
771,2021-02-02 03:00,1448.84,
772,2021-02-02 04:00,1432.98,
773,2021-02-02 05:00,1442.83,
774,2021-02-02 06:00,1496.80,
775,2021-02-02 07:00,1597.15,